Regional Weather Roundup
Issued by NWS

Home | Current Version | Previous Version | Graphics & Text | Print | Product List | Glossary On
Versions: 1 2 3 4 5 6 7 8 9 10 11 12 13 14 15 16 17 18 19 20 21 22 23 24 25 26 27 28 29 30 31 32 33 34 35 36 37 38 39 40 41 42 43 44 45 46 47 48 49 50
000
ASUS45 KABQ 080201
RWRNM
NEW MEXICO REGIONAL WEATHER ROUNDUP
NATIONAL WEATHER SERVICE ALBUQUERQUE NM
700 PM MST SUN FEB 07 2016

NOTE: "FAIR" MEANS FEW OR NO CLOUDS BELOW 12,000 FEET AGL WITH NO
       SIGNIFICANT WEATHER OR OBSTRUCTIONS TO VISION.

      THIS PRODUCT IS RELEASED AS TWO VERSIONS.  ONE VERSION NEAR
      THE TOP OF THE HOUR CONTAINING PRELIMINARY DATA FROM ALBUQUERQUE
      AND OTHER STATIONS.  A FINAL VERSION WITH ADDITIONAL DATA IS
      ISSUED ABOUT 10 MINUTES AFTER THE HOUR.

NMZ501-503-504-510>518-080300-
NORTHWEST PLATEAU/NORTHCENTRAL MOUNTAINS

CITY           SKY/WX    TMP DP  RH WIND       PRES   REMARKS
FARMINGTON     CLOUDY    38  21  50 W3        30.36S
SANTA FE       CLOUDY    40  17  39 NW6       30.32R
TAOS           CLOUDY    28  16  59 NW8       30.36R WCI  20

$$
NMZ402-403-502-505>509-080300-
WESTCENTRAL MOUNTAINS/SOUTHWEST MOUNTAINS

CITY           SKY/WX    TMP DP  RH WIND       PRES   REMARKS
GALLUP         CLEAR     34  18  52 CALM      30.40R
SILVER CITY      N/A     39  14  35 N5        30.32R

$$
NMZ407-409-411-412-080300-
SOUTHERN DESERTS

CITY           SKY/WX    TMP DP  RH WIND       PRES   REMARKS
DEMING         CLOUDY    51  14  22 NW3       30.27R
HOLLOMAN AFB   CLOUDY    55  14  19 NW6       30.24R
ALAMOGORDO     CLOUDY    54  14  20 N7        30.25R
T OR C         MOCLDY    55  14  19 N6        30.28R

$$
NMZ519>523-080300-
CENTRAL VALLEYS/CENTRAL HIGHLANDS

CITY           SKY/WX    TMP DP  RH WIND       PRES   REMARKS
ALBUQUERQUE    CLEAR     48  17  29 N15       30.34R
DOUBLE EAGLE   CLEAR     41  19  42 NW14G21   30.34R
MORIARTY ARPT  FAIR      33  17  51 NW8       30.33R WCI  26
CLINES CORNERS CLOUDY    33  20  58 NW12      30.30R WCI  24
BELEN          FAIR      43  14  30 N8        30.35R
SOCORRO        NOT AVBL

$$
NMZ524>526-539-540-080300-
SOUTHCENTRAL MOUNTAINS

CITY           SKY/WX    TMP DP  RH WIND       PRES   REMARKS
RUIDOSO        NOT AVBL

$$
NMZ527>531-080300-
NORTHEAST HIGHLANDS/NORTHEAST PLAINS

CITY           SKY/WX    TMP DP  RH WIND       PRES   REMARKS
LAS VEGAS      CLOUDY    34  20  56 SW9       30.30R WCI  27
RATON          CLOUDY    34  21  59 N8        30.28R WCI  27
CLAYTON        CLEAR     29  17  61 N15       30.34R WCI  18

$$
NMZ532>537-080300-
EASTCENTRAL PLAINS

CITY           SKY/WX    TMP DP  RH WIND       PRES   REMARKS
TUCUMCARI      CLEAR     37  17  44 NE9       30.28R WCI  30
CANNON AFB     CLEAR     38  19  46 NE10      30.27R WCI  31
CLOVIS AIRPORT CLEAR     37  18  44 NE12      30.29R WCI  30

$$
NMZ028-029-538-080300-
SOUTHEAST PLAINS

CITY           SKY/WX    TMP DP  RH WIND       PRES   REMARKS
ROSWELL        CLOUDY    45  18  34 SW5       30.23R
ARTESIA        CLOUDY    52  21  30 CALM      30.24R
CARLSBAD       CLOUDY    54  19  25 E3        30.22R
HOBBS          CLOUDY    48  16  27 NE6       30.26R


$$



USA.gov is the U.S. government's official web portal to all federal, state and local government web resources and services.